When you browse on this site, cookies collect data to enhance your experience and personalize the content and advertising you see.
Visit our Privacy Policy to learn more. By continuing to use the site, you agree to this use of cookies and data.
  • In United Kingdom
  • List of Countries
  • For 7 days
  • Water Temperature
  • Satellite Maps
  • Weather Map
  • Weather Widgets
  • user-avatar
    Login

    Hourly Weather Bukavu

    Today, 20 March, Wednesday

    Time Temperature Precipitation Wind Pressure Humidity
    00:00 +23°C° 0 mm 0 mps 686 mmHg 53%
    01:00 +22°C° 0 mm 0 mps 685 mmHg 54%
    02:00 +22°C° 0 mm 0 mps 685 mmHg 57%
    03:00 +22°C° 0 mm 0 mps 686 mmHg 58%
    04:00 +21°C° 0 mm 0 mps 686 mmHg 59%
    05:00 +21°C° 0 mm 0 mps 686 mmHg 60%
    06:00 +23°C° 0 mm 0 mps 687 mmHg 56%
    07:00 +25°C° 0 mm 0 mps 687 mmHg 52%
    08:00 +27°C° 0 mm 0 mps 688 mmHg 47%
    09:00 +32°C° 0 mm 1 mps 688 mmHg 40%
    10:00 +35°C° 0 mm 1 mps 689 mmHg 32%
    11:00 +39°C° 0 mm 1 mps 689 mmHg 25%
    12:00 +39°C° 0 mm 1 mps 688 mmHg 24%
    13:00 +37°C° 0 mm 1 mps 687 mmHg 24%
    14:00 +37°C° 0 mm 1 mps 686 mmHg 23%
    15:00 +37°C° 0 mm 1 mps 686 mmHg 23%
    16:00 +37°C° 0 mm 1 mps 685 mmHg 22%
    17:00 +37°C° 0 mm 1 mps 685 mmHg 21%
    18:00 +35°C° 0 mm 1 mps 685 mmHg 27%
    19:00 +30°C° 0 mm 0 mps 685 mmHg 33%
    20:00 +27°C° 0 mm 0 mps 685 mmHg 38%
    21:00 +27°C° 0 mm 0 mps 685 mmHg 39%
    22:00 +27°C° 0 mm 0 mps 686 mmHg 39%
    23:00 +27°C° 0 mm 0 mps 686 mmHg 40%

    Tomorrow, 21 March, Thursday

    Time Temperature Precipitation Wind Pressure Humidity
    00:00 +26°C° 0 mm 0 mps 686 mmHg 42%
    01:00 +25°C° 0 mm 0 mps 686 mmHg 45%
    02:00 +25°C° 0 mm 0 mps 685 mmHg 47%
    03:00 +24°C° 0 mm 0 mps 685 mmHg 48%
    04:00 +24°C° 0 mm 0 mps 685 mmHg 49%
    05:00 +24°C° 0 mm 0 mps 686 mmHg 49%
    06:00 +26°C° 0.1 mm 1 mps 686 mmHg 54%
    07:00 +25°C° 0.1 mm 1 mps 686 mmHg 58%
    08:00 +25°C° 0.1 mm 1 mps 687 mmHg 62%
    09:00 +29°C° 0 mm 1 mps 688 mmHg 51%
    10:00 +33°C° 0 mm 1 mps 688 mmHg 40%
    11:00 +37°C° 0 mm 1 mps 689 mmHg 28%
    12:00 +39°C° 0 mm 1 mps 688 mmHg 27%
    13:00 +39°C° 0 mm 1 mps 687 mmHg 25%
    14:00 +37°C° 0 mm 0 mps 686 mmHg 23%
    15:00 +37°C° 0 mm 1 mps 686 mmHg 26%
    16:00 +36°C° 0 mm 1 mps 685 mmHg 29%
    17:00 +36°C° 0 mm 2 mps 685 mmHg 33%
    18:00 +33°C° 0 mm 1 mps 685 mmHg 38%
    19:00 +31°C° 0 mm 1 mps 685 mmHg 44%
    20:00 +29°C° 0 mm 1 mps 685 mmHg 50%
    21:00 +28°C° 0 mm 1 mps 685 mmHg 52%
    22:00 +27°C° 0 mm 1 mps 686 mmHg 54%
    23:00 +26°C° 0 mm 1 mps 686 mmHg 56%

    Day after tomorrow, 22 March, Friday

    Time Temperature Precipitation Wind Pressure Humidity
    00:00 +26°C° 0.2 mm 1 mps 686 mmHg 62%
    01:00 +25°C° 0.2 mm 1 mps 685 mmHg 67%
    02:00 +24°C° 0.2 mm 1 mps 685 mmHg 72%
    03:00 +24°C° 0 mm 1 mps 685 mmHg 73%
    04:00 +24°C° 0 mm 1 mps 685 mmHg 74%
    05:00 +24°C° 0 mm 1 mps 686 mmHg 76%
    06:00 +25°C° 0 mm 1 mps 686 mmHg 72%
    07:00 +26°C° 0 mm 2 mps 687 mmHg 68%
    08:00 +27°C° 0 mm 2 mps 688 mmHg 64%
    09:00 +31°C° 0 mm 2 mps 688 mmHg 52%
    10:00 +34°C° 0 mm 1 mps 689 mmHg 41%
    11:00 +39°C° 0 mm 1 mps 689 mmHg 29%
    12:00 +36°C° 0 mm 1 mps 688 mmHg 31%
    13:00 +35°C° 0 mm 1 mps 686 mmHg 33%
    14:00 +32°C° 0 mm 0 mps 685 mmHg 34%
    15:00 +33°C° 0 mm 0 mps 685 mmHg 30%
    16:00 +34°C° 0 mm 0 mps 685 mmHg 27%
    17:00 +36°C° 0 mm 0 mps 685 mmHg 23%
    18:00 +35°C° 0 mm 1 mps 685 mmHg 30%
    19:00 +32°C° 0 mm 1 mps 685 mmHg 37%
    20:00 +30°C° 0 mm 1 mps 686 mmHg 44%
    21:00 +28°C° 0 mm 1 mps 686 mmHg 51%
    22:00 +25°C° 0 mm 0 mps 686 mmHg 57%
    23:00 +24°C° 0 mm 0 mps 686 mmHg 64%

    23 March, Saturday

    Time Temperature Precipitation Wind Pressure Humidity
    00:00 +24°C° 0 mm 0 mps 686 mmHg 65%
    01:00 +23°C° 0 mm 0 mps 685 mmHg 67%
    02:00 +25°C° 0 mm 1 mps 685 mmHg 68%
    03:00 +25°C° 0.1 mm 1 mps 685 mmHg 72%
    04:00 +24°C° 0.1 mm 1 mps 685 mmHg 76%
    05:00 +24°C° 0.1 mm 1 mps 686 mmHg 79%
    06:00 +23°C° 0.9 mm 1 mps 686 mmHg 84%
    07:00 +23°C° 0.9 mm 1 mps 686 mmHg 88%
    08:00 +23°C° 0.9 mm 1 mps 687 mmHg 93%
    09:00 +27°C° 0 mm 1 mps 688 mmHg 72%
    10:00 +32°C° 0 mm 1 mps 688 mmHg 51%
    11:00 +37°C° 0 mm 1 mps 689 mmHg 30%
    12:00 +39°C° 0 mm 1 mps 688 mmHg 27%
    13:00 +40°C° 0 mm 1 mps 687 mmHg 24%
    14:00 +40°C° 0 mm 1 mps 686 mmHg 21%
    15:00 +39°C° 0 mm 1 mps 685 mmHg 21%
    16:00 +39°C° 0 mm 1 mps 685 mmHg 22%
    17:00 +37°C° 0 mm 1 mps 685 mmHg 23%
    18:00 +35°C° 0 mm 1 mps 685 mmHg 30%
    19:00 +33°C° 0 mm 1 mps 685 mmHg 36%
    20:00 +31°C° 0 mm 2 mps 686 mmHg 43%
    21:00 +29°C° 0.1 mm 1 mps 686 mmHg 55%
    22:00 +27°C° 0.1 mm 1 mps 686 mmHg 67%
    23:00 +25°C° 0.1 mm 1 mps 686 mmHg 78%

    24 March, Sunday

    Time Temperature Precipitation Wind Pressure Humidity
    00:00 +24°C° 0 mm 1 mps 685 mmHg 81%
    01:00 +23°C° 0 mm 1 mps 685 mmHg 84%
    02:00 +23°C° 0 mm 1 mps 684 mmHg 87%
    03:00 +20°C° 0 mm 0 mps 685 mmHg 87%
    04:00 +20°C° 0 mm 0 mps 685 mmHg 86%
    05:00 +20°C° 0 mm 0 mps 685 mmHg 86%
    06:00 +22°C° 0 mm 0 mps 686 mmHg 79%
    07:00 +25°C° 0 mm 1 mps 687 mmHg 72%
    08:00 +27°C° 0 mm 1 mps 688 mmHg 65%
    09:00 +31°C° 0 mm 1 mps 688 mmHg 53%
    10:00 +35°C° 0 mm 1 mps 688 mmHg 41%
    11:00 +39°C° 0 mm 1 mps 689 mmHg 29%
    12:00 +37°C° 0 mm 1 mps 687 mmHg 31%
    13:00 +36°C° 0 mm 1 mps 686 mmHg 32%
    14:00 +36°C° 0 mm 1 mps 685 mmHg 33%
    15:00 +35°C° 0 mm 1 mps 685 mmHg 35%
    16:00 +35°C° 0 mm 1 mps 685 mmHg 36%
    17:00 +34°C° 0 mm 1 mps 684 mmHg 38%
    18:00 +32°C° 0 mm 1 mps 685 mmHg 45%
    19:00 +29°C° 0 mm 1 mps 685 mmHg 53%
    20:00 +27°C° 0 mm 1 mps 685 mmHg 61%
    21:00 +27°C° 0.1 mm 1 mps 685 mmHg 65%
    22:00 +26°C° 0.1 mm 1 mps 685 mmHg 68%
    23:00 +26°C° 0.1 mm 1 mps 686 mmHg 72%

    25 March, Monday

    Time Temperature Precipitation Wind Pressure Humidity
    00:00 +25°C° 0.5 mm 1 mps 685 mmHg 80%
    01:00 +24°C° 0.5 mm 1 mps 685 mmHg 88%
    02:00 +23°C° 0.5 mm 1 mps 685 mmHg 95%
    03:00 +23°C° 0 mm 1 mps 685 mmHg 94%
    04:00 +23°C° 0 mm 1 mps 686 mmHg 93%
    05:00 +23°C° 0 mm 2 mps 686 mmHg 91%
    06:00 +24°C° 1 mm 2 mps 687 mmHg 89%
    07:00 +25°C° 1 mm 2 mps 688 mmHg 86%
    08:00 +26°C° 1 mm 2 mps 688 mmHg 84%
    09:00 +26°C° 0.8 mm 2 mps 688 mmHg 80%
    10:00 +27°C° 0.8 mm 2 mps 688 mmHg 77%
    11:00 +28°C° 0.8 mm 2 mps 688 mmHg 73%
    12:00 +30°C° 0.2 mm 2 mps 687 mmHg 64%
    13:00 +32°C° 0.2 mm 2 mps 687 mmHg 54%
    14:00 +34°C° 0.2 mm 1 mps 687 mmHg 45%
    15:00 +31°C° 0.8 mm 1 mps 686 mmHg 56%
    16:00 +29°C° 0.8 mm 1 mps 685 mmHg 67%
    17:00 +27°C° 0.8 mm 1 mps 685 mmHg 78%
    18:00 +25°C° 0.1 mm 1 mps 685 mmHg 82%
    19:00 +22°C° 0.1 mm 0 mps 685 mmHg 87%
    20:00 +21°C° 0.1 mm 0 mps 685 mmHg 91%
    21:00 +21°C° 0 mm 0 mps 686 mmHg 91%
    22:00 +21°C° 0 mm 0 mps 686 mmHg 91%
    23:00 +21°C° 0 mm 0 mps 687 mmHg 91%
    Show more